WORLDVIEW-1 (WV-1)

Last updated on Wed Sep 17 2025 00:02:30 GMT+0000 (Coordinated Universal Time)

1 32060U 07041A 25258.90223963 .00008572 00000+0 35341-3 0 9999 2 32060 97.3824 17.6285 0003120 8.7495 351.3796 15.24310802 1094
UTC large
Height (km)
Speed (km/s)
/
Latitude / Longitude
Inclination (degrees)
Orbital Period (minutes)
Azimuth
Elevation
Range (km)
Doppler Factor

Next 0 passes for location: London (51.5072 / 0.1276)

Sorry there are no passes over London.